#datetime,building,power
2022-06-26T00:00:00,ths,8.15
2022-06-26T00:01:00,ths,7.39
2022-06-26T00:02:00,ths,7.27
2022-06-26T00:03:00,ths,5.44
2022-06-26T00:04:00,ths,4.65
2022-06-26T00:05:00,ths,4.43
2022-06-26T00:06:00,ths,4.44
2022-06-26T00:07:00,ths,4.46
2022-06-26T00:08:00,ths,4.43
2022-06-26T00:09:00,ths,7.45
2022-06-26T00:10:00,ths,7.50
2022-06-26T00:11:00,ths,7.49
2022-06-26T00:12:00,ths,7.49
2022-06-26T00:13:00,ths,7.45
2022-06-26T00:14:00,ths,7.43
2022-06-26T00:15:00,ths,7.43
2022-06-26T00:16:00,ths,4.35
2022-06-26T00:17:00,ths,4.36
2022-06-26T00:18:00,ths,4.35
2022-06-26T00:19:00,ths,7.05
2022-06-26T00:20:00,ths,7.07
2022-06-26T00:21:00,ths,10.12
2022-06-26T00:22:00,ths,10.13
2022-06-26T00:23:00,ths,10.11
2022-06-26T00:24:00,ths,7.37
2022-06-26T00:25:00,ths,7.51
2022-06-26T00:26:00,ths,7.50
2022-06-26T00:27:00,ths,7.27
2022-06-26T00:28:00,ths,7.24
2022-06-26T00:29:00,ths,7.24
2022-06-26T00:30:00,ths,7.23
2022-06-26T00:31:00,ths,7.17
2022-06-26T00:32:00,ths,7.21
2022-06-26T00:33:00,ths,7.23
2022-06-26T00:34:00,ths,7.20
2022-06-26T00:35:00,ths,7.20
2022-06-26T00:36:00,ths,4.54
2022-06-26T00:37:00,ths,4.12
2022-06-26T00:38:00,ths,4.10
2022-06-26T00:39:00,ths,4.10
2022-06-26T00:40:00,ths,4.12
2022-06-26T00:41:00,ths,4.11
2022-06-26T00:42:00,ths,6.80
2022-06-26T00:43:00,ths,9.91
2022-06-26T00:44:00,ths,9.89
2022-06-26T00:45:00,ths,10.07
2022-06-26T00:46:00,ths,8.00
2022-06-26T00:47:00,ths,7.47
2022-06-26T00:48:00,ths,7.47
2022-06-26T00:49:00,ths,7.29
2022-06-26T00:50:00,ths,7.25
2022-06-26T00:51:00,ths,5.11
2022-06-26T00:52:00,ths,4.32
2022-06-26T00:53:00,ths,4.32
2022-06-26T00:54:00,ths,4.52
2022-06-26T00:55:00,ths,4.31
2022-06-26T00:56:00,ths,4.30
2022-06-26T00:57:00,ths,7.32
2022-06-26T00:58:00,ths,7.29
2022-06-26T00:59:00,ths,7.30
2022-06-26T01:00:00,ths,7.39
2022-06-26T01:01:00,ths,7.40
2022-06-26T01:02:00,ths,7.36
2022-06-26T01:03:00,ths,7.38
2022-06-26T01:04:00,ths,7.37
2022-06-26T01:05:00,ths,5.82
2022-06-26T01:06:00,ths,5.24
2022-06-26T01:07:00,ths,7.69
2022-06-26T01:08:00,ths,7.74
2022-06-26T01:09:00,ths,7.71
2022-06-26T01:10:00,ths,7.69
2022-06-26T01:11:00,ths,5.67
2022-06-26T01:12:00,ths,8.10
2022-06-26T01:13:00,ths,7.95
2022-06-26T01:14:00,ths,8.11
2022-06-26T01:15:00,ths,8.06
2022-06-26T01:16:00,ths,8.01
2022-06-26T01:17:00,ths,7.92
2022-06-26T01:18:00,ths,7.92
2022-06-26T01:19:00,ths,7.93
2022-06-26T01:20:00,ths,5.73
2022-06-26T01:21:00,ths,4.96
2022-06-26T01:22:00,ths,4.96
2022-06-26T01:23:00,ths,4.96
2022-06-26T01:24:00,ths,4.97
2022-06-26T01:25:00,ths,4.95
2022-06-26T01:26:00,ths,4.93
2022-06-26T01:27:00,ths,4.29
2022-06-26T01:28:00,ths,7.12
2022-06-26T01:29:00,ths,7.15
2022-06-26T01:30:00,ths,7.09
2022-06-26T01:31:00,ths,7.15
2022-06-26T01:32:00,ths,7.37
2022-06-26T01:33:00,ths,7.18
2022-06-26T01:34:00,ths,7.65
2022-06-26T01:35:00,ths,7.14
2022-06-26T01:36:00,ths,6.87
2022-06-26T01:37:00,ths,6.87
2022-06-26T01:38:00,ths,4.12
2022-06-26T01:39:00,ths,4.25
2022-06-26T01:40:00,ths,4.25
2022-06-26T01:41:00,ths,4.24
2022-06-26T01:42:00,ths,7.13
2022-06-26T01:43:00,ths,7.15
2022-06-26T01:44:00,ths,7.22
2022-06-26T01:45:00,ths,7.11
2022-06-26T01:46:00,ths,7.13
2022-06-26T01:47:00,ths,7.08
2022-06-26T01:48:00,ths,7.19
2022-06-26T01:49:00,ths,4.95
2022-06-26T01:50:00,ths,4.22
2022-06-26T01:51:00,ths,4.22
2022-06-26T01:52:00,ths,4.27
2022-06-26T01:53:00,ths,4.39
2022-06-26T01:54:00,ths,4.42
2022-06-26T01:55:00,ths,4.39
2022-06-26T01:56:00,ths,5.15
2022-06-26T01:57:00,ths,5.11
2022-06-26T01:58:00,ths,8.07
2022-06-26T01:59:00,ths,8.03
2022-06-26T02:00:00,ths,8.41
2022-06-26T02:01:00,ths,8.40
2022-06-26T02:02:00,ths,8.20
2022-06-26T02:03:00,ths,6.03
2022-06-26T02:04:00,ths,7.91
2022-06-26T02:05:00,ths,7.91
2022-06-26T02:06:00,ths,7.95
2022-06-26T02:07:00,ths,5.77
2022-06-26T02:08:00,ths,5.23
2022-06-26T02:09:00,ths,5.19
2022-06-26T02:10:00,ths,5.11
2022-06-26T02:11:00,ths,5.25
2022-06-26T02:12:00,ths,8.09
2022-06-26T02:13:00,ths,8.12
2022-06-26T02:14:00,ths,8.16
2022-06-26T02:15:00,ths,8.17
2022-06-26T02:16:00,ths,8.15
2022-06-26T02:17:00,ths,8.14
2022-06-26T02:18:00,ths,7.40
2022-06-26T02:19:00,ths,5.30
2022-06-26T02:20:00,ths,4.42
2022-06-26T02:21:00,ths,4.48
2022-06-26T02:22:00,ths,4.55
2022-06-26T02:23:00,ths,4.51
2022-06-26T02:24:00,ths,4.51
2022-06-26T02:25:00,ths,4.39
2022-06-26T02:26:00,ths,5.25
2022-06-26T02:27:00,ths,5.06
2022-06-26T02:28:00,ths,8.07
2022-06-26T02:29:00,ths,7.96
2022-06-26T02:30:00,ths,7.94
2022-06-26T02:31:00,ths,8.10
2022-06-26T02:32:00,ths,7.63
2022-06-26T02:33:00,ths,7.43
2022-06-26T02:34:00,ths,7.65
2022-06-26T02:35:00,ths,5.14
2022-06-26T02:36:00,ths,4.58
2022-06-26T02:37:00,ths,4.55
2022-06-26T02:38:00,ths,5.09
2022-06-26T02:39:00,ths,5.24
2022-06-26T02:40:00,ths,4.89
2022-06-26T02:41:00,ths,4.81
2022-06-26T02:42:00,ths,5.35
2022-06-26T02:43:00,ths,5.30
2022-06-26T02:44:00,ths,7.30
2022-06-26T02:45:00,ths,7.29
2022-06-26T02:46:00,ths,7.89
2022-06-26T02:47:00,ths,7.77
2022-06-26T02:48:00,ths,7.84
2022-06-26T02:49:00,ths,7.30
2022-06-26T02:50:00,ths,5.74
2022-06-26T02:51:00,ths,5.12
2022-06-26T02:52:00,ths,4.65
2022-06-26T02:53:00,ths,4.62
2022-06-26T02:54:00,ths,4.61
2022-06-26T02:55:00,ths,4.56
2022-06-26T02:56:00,ths,6.83
2022-06-26T02:57:00,ths,6.85
2022-06-26T02:58:00,ths,6.82
2022-06-26T02:59:00,ths,4.76
2022-06-26T03:00:00,ths,4.07
2022-06-26T03:01:00,ths,7.17
2022-06-26T03:02:00,ths,7.23
2022-06-26T03:03:00,ths,7.23
2022-06-26T03:04:00,ths,7.16
2022-06-26T03:05:00,ths,7.21
2022-06-26T03:06:00,ths,7.65
2022-06-26T03:07:00,ths,5.30
2022-06-26T03:08:00,ths,4.50
2022-06-26T03:09:00,ths,4.48
2022-06-26T03:10:00,ths,4.48
2022-06-26T03:11:00,ths,4.10
2022-06-26T03:12:00,ths,4.30
2022-06-26T03:13:00,ths,7.30
2022-06-26T03:14:00,ths,7.28
2022-06-26T03:15:00,ths,7.27
2022-06-26T03:16:00,ths,7.27
2022-06-26T03:17:00,ths,7.03
2022-06-26T03:18:00,ths,7.07
2022-06-26T03:19:00,ths,7.08
2022-06-26T03:20:00,ths,5.14
2022-06-26T03:21:00,ths,4.39
2022-06-26T03:22:00,ths,4.40
2022-06-26T03:23:00,ths,4.39
2022-06-26T03:24:00,ths,4.39
2022-06-26T03:25:00,ths,4.20
2022-06-26T03:26:00,ths,4.20
2022-06-26T03:27:00,ths,4.19
2022-06-26T03:28:00,ths,4.18
2022-06-26T03:29:00,ths,4.17
2022-06-26T03:30:00,ths,7.25
2022-06-26T03:31:00,ths,7.28
2022-06-26T03:32:00,ths,7.33
2022-06-26T03:33:00,ths,7.29
2022-06-26T03:34:00,ths,7.55
2022-06-26T03:35:00,ths,7.37
2022-06-26T03:36:00,ths,4.96
2022-06-26T03:37:00,ths,4.22
2022-06-26T03:38:00,ths,4.20
2022-06-26T03:39:00,ths,4.20
2022-06-26T03:40:00,ths,6.95
2022-06-26T03:41:00,ths,6.75
2022-06-26T03:42:00,ths,6.78
2022-06-26T03:43:00,ths,6.85
2022-06-26T03:44:00,ths,6.80
2022-06-26T03:45:00,ths,4.09
2022-06-26T03:46:00,ths,6.96
2022-06-26T03:47:00,ths,6.99
2022-06-26T03:48:00,ths,7.12
2022-06-26T03:49:00,ths,7.27
2022-06-26T03:50:00,ths,7.25
2022-06-26T03:51:00,ths,5.46
2022-06-26T03:52:00,ths,4.32
2022-06-26T03:53:00,ths,4.31
2022-06-26T03:54:00,ths,4.31
2022-06-26T03:55:00,ths,4.31
2022-06-26T03:56:00,ths,4.31
2022-06-26T03:57:00,ths,4.31
2022-06-26T03:58:00,ths,4.30
2022-06-26T03:59:00,ths,4.30
2022-06-26T04:00:00,ths,4.29
2022-06-26T04:01:00,ths,4.29
2022-06-26T04:02:00,ths,4.29
2022-06-26T04:03:00,ths,4.28
2022-06-26T04:04:00,ths,7.17
2022-06-26T04:05:00,ths,7.16
2022-06-26T04:06:00,ths,7.21
2022-06-26T04:07:00,ths,7.46
2022-06-26T04:08:00,ths,7.45
2022-06-26T04:09:00,ths,5.22
2022-06-26T04:10:00,ths,4.44
2022-06-26T04:11:00,ths,4.32
2022-06-26T04:12:00,ths,4.31
2022-06-26T04:13:00,ths,4.31
2022-06-26T04:14:00,ths,4.30
2022-06-26T04:15:00,ths,4.21
2022-06-26T04:16:00,ths,4.20
2022-06-26T04:17:00,ths,6.83
2022-06-26T04:18:00,ths,6.78
2022-06-26T04:19:00,ths,6.78
2022-06-26T04:20:00,ths,6.78
2022-06-26T04:21:00,ths,7.71
2022-06-26T04:22:00,ths,7.09
2022-06-26T04:23:00,ths,7.13
2022-06-26T04:24:00,ths,7.12
2022-06-26T04:25:00,ths,7.10
2022-06-26T04:26:00,ths,7.24
2022-06-26T04:27:00,ths,4.30
2022-06-26T04:28:00,ths,4.30
2022-06-26T04:29:00,ths,4.30
2022-06-26T04:30:00,ths,4.29
2022-06-26T04:31:00,ths,4.31
2022-06-26T04:32:00,ths,4.30
2022-06-26T04:33:00,ths,4.31
2022-06-26T04:34:00,ths,4.30
2022-06-26T04:35:00,ths,4.30
2022-06-26T04:36:00,ths,4.29
2022-06-26T04:37:00,ths,4.29
2022-06-26T04:38:00,ths,4.30
2022-06-26T04:39:00,ths,4.30
2022-06-26T04:40:00,ths,7.10
2022-06-26T04:41:00,ths,7.08
2022-06-26T04:42:00,ths,7.09
2022-06-26T04:43:00,ths,7.33
2022-06-26T04:44:00,ths,7.27
2022-06-26T04:45:00,ths,4.23
2022-06-26T04:46:00,ths,4.26
2022-06-26T04:47:00,ths,4.26
2022-06-26T04:48:00,ths,4.24
2022-06-26T04:49:00,ths,4.24
2022-06-26T04:50:00,ths,4.22
2022-06-26T04:51:00,ths,4.23
2022-06-26T04:52:00,ths,4.24
2022-06-26T04:53:00,ths,4.23
2022-06-26T04:54:00,ths,4.23
2022-06-26T04:55:00,ths,4.23
2022-06-26T04:56:00,ths,4.22
2022-06-26T04:57:00,ths,4.23
2022-06-26T04:58:00,ths,5.31
2022-06-26T04:59:00,ths,6.98
2022-06-26T05:00:00,ths,7.06
2022-06-26T05:01:00,ths,7.01
2022-06-26T05:02:00,ths,6.98
2022-06-26T05:03:00,ths,7.01
2022-06-26T05:04:00,ths,4.45
2022-06-26T05:05:00,ths,4.23
2022-06-26T05:06:00,ths,4.23
2022-06-26T05:07:00,ths,4.24
2022-06-26T05:08:00,ths,4.23
2022-06-26T05:09:00,ths,4.24
2022-06-26T05:10:00,ths,4.38
2022-06-26T05:11:00,ths,4.37
2022-06-26T05:12:00,ths,4.36
2022-06-26T05:13:00,ths,4.35
2022-06-26T05:14:00,ths,4.35
2022-06-26T05:15:00,ths,4.36
2022-06-26T05:16:00,ths,4.25
2022-06-26T05:17:00,ths,4.25
2022-06-26T05:18:00,ths,4.25
2022-06-26T05:19:00,ths,7.07
2022-06-26T05:20:00,ths,7.14
2022-06-26T05:21:00,ths,7.13
2022-06-26T05:22:00,ths,7.31
2022-06-26T05:23:00,ths,7.37
2022-06-26T05:24:00,ths,5.03
2022-06-26T05:25:00,ths,4.27
2022-06-26T05:26:00,ths,4.27
2022-06-26T05:27:00,ths,4.25
2022-06-26T05:28:00,ths,4.24
2022-06-26T05:29:00,ths,4.25
2022-06-26T05:30:00,ths,4.25
2022-06-26T05:31:00,ths,4.14
2022-06-26T05:32:00,ths,4.13
2022-06-26T05:33:00,ths,4.01
2022-06-26T05:34:00,ths,4.03
2022-06-26T05:35:00,ths,4.04
2022-06-26T05:36:00,ths,4.03
2022-06-26T05:37:00,ths,4.02
2022-06-26T05:38:00,ths,4.03
2022-06-26T05:39:00,ths,4.18
2022-06-26T05:40:00,ths,6.98
2022-06-26T05:41:00,ths,7.17
2022-06-26T05:42:00,ths,7.22
2022-06-26T05:43:00,ths,7.04
2022-06-26T05:44:00,ths,7.03
2022-06-26T05:45:00,ths,4.94
2022-06-26T05:46:00,ths,4.15
2022-06-26T05:47:00,ths,4.14
2022-06-26T05:48:00,ths,4.14
2022-06-26T05:49:00,ths,4.27
2022-06-26T05:50:00,ths,4.25
2022-06-26T05:51:00,ths,4.25
2022-06-26T05:52:00,ths,4.25
2022-06-26T05:53:00,ths,4.25
2022-06-26T05:54:00,ths,4.25
2022-06-26T05:55:00,ths,4.25
2022-06-26T05:56:00,ths,4.24
2022-06-26T05:57:00,ths,4.24
2022-06-26T05:58:00,ths,4.24
2022-06-26T05:59:00,ths,4.25
2022-06-26T06:00:00,ths,7.07
2022-06-26T06:01:00,ths,7.04
2022-06-26T06:02:00,ths,7.96
2022-06-26T06:03:00,ths,7.94
2022-06-26T06:04:00,ths,8.20
2022-06-26T06:05:00,ths,5.88
2022-06-26T06:06:00,ths,5.89
2022-06-26T06:07:00,ths,5.12
2022-06-26T06:08:00,ths,5.13
2022-06-26T06:09:00,ths,5.11
2022-06-26T06:10:00,ths,5.11
2022-06-26T06:11:00,ths,5.11
2022-06-26T06:12:00,ths,5.10
2022-06-26T06:13:00,ths,5.11
2022-06-26T06:14:00,ths,5.10
2022-06-26T06:15:00,ths,5.10
2022-06-26T06:16:00,ths,5.10
2022-06-26T06:17:00,ths,5.10
2022-06-26T06:18:00,ths,5.11
2022-06-26T06:19:00,ths,4.99
2022-06-26T06:20:00,ths,5.12
2022-06-26T06:21:00,ths,5.09
2022-06-26T06:22:00,ths,7.96
2022-06-26T06:23:00,ths,7.96
2022-06-26T06:24:00,ths,8.02
2022-06-26T06:25:00,ths,8.00
2022-06-26T06:26:00,ths,7.16
2022-06-26T06:27:00,ths,4.99
2022-06-26T06:28:00,ths,5.10
2022-06-26T06:29:00,ths,4.25
2022-06-26T06:30:00,ths,4.24
2022-06-26T06:31:00,ths,4.25
2022-06-26T06:32:00,ths,4.24
2022-06-26T06:33:00,ths,4.31
2022-06-26T06:34:00,ths,4.26
2022-06-26T06:35:00,ths,4.25
2022-06-26T06:36:00,ths,4.34
2022-06-26T06:37:00,ths,4.36
2022-06-26T06:38:00,ths,4.36
2022-06-26T06:39:00,ths,4.35
2022-06-26T06:40:00,ths,4.33
2022-06-26T06:41:00,ths,4.32
2022-06-26T06:42:00,ths,5.53
2022-06-26T06:43:00,ths,7.21
2022-06-26T06:44:00,ths,7.26
2022-06-26T06:45:00,ths,7.25
2022-06-26T06:46:00,ths,4.89
2022-06-26T06:47:00,ths,4.10
2022-06-26T06:48:00,ths,4.09
2022-06-26T06:49:00,ths,4.09
2022-06-26T06:50:00,ths,4.09
2022-06-26T06:51:00,ths,4.10
2022-06-26T06:52:00,ths,4.37
2022-06-26T06:53:00,ths,4.34
2022-06-26T06:54:00,ths,4.33
2022-06-26T06:55:00,ths,4.33
2022-06-26T06:56:00,ths,4.53
2022-06-26T06:57:00,ths,4.32
2022-06-26T06:58:00,ths,4.32
2022-06-26T06:59:00,ths,4.33
2022-06-26T07:00:00,ths,4.31
2022-06-26T07:01:00,ths,4.31
2022-06-26T07:02:00,ths,4.33
2022-06-26T07:03:00,ths,9.72
2022-06-26T07:04:00,ths,9.61
2022-06-26T07:05:00,ths,9.58
2022-06-26T07:06:00,ths,9.56
2022-06-26T07:07:00,ths,7.86
2022-06-26T07:08:00,ths,7.68
2022-06-26T07:09:00,ths,5.14
2022-06-26T07:10:00,ths,4.20
2022-06-26T07:11:00,ths,4.18
2022-06-26T07:12:00,ths,4.18
2022-06-26T07:13:00,ths,4.17
2022-06-26T07:14:00,ths,4.16
2022-06-26T07:15:00,ths,4.16
2022-06-26T07:16:00,ths,4.21
2022-06-26T07:17:00,ths,4.24
2022-06-26T07:18:00,ths,4.23
2022-06-26T07:19:00,ths,4.22
2022-06-26T07:20:00,ths,4.21
2022-06-26T07:21:00,ths,4.22
2022-06-26T07:22:00,ths,4.22
2022-06-26T07:23:00,ths,4.38
2022-06-26T07:24:00,ths,4.32
2022-06-26T07:25:00,ths,4.43
2022-06-26T07:26:00,ths,6.31
2022-06-26T07:27:00,ths,6.36
2022-06-26T07:28:00,ths,6.18
2022-06-26T07:29:00,ths,6.34
2022-06-26T07:30:00,ths,6.35
2022-06-26T07:31:00,ths,6.20
2022-06-26T07:32:00,ths,4.33
2022-06-26T07:33:00,ths,4.28
2022-06-26T07:34:00,ths,4.25
2022-06-26T07:35:00,ths,4.41
2022-06-26T07:36:00,ths,4.61
2022-06-26T07:37:00,ths,4.47
2022-06-26T07:38:00,ths,4.47
2022-06-26T07:39:00,ths,4.47
2022-06-26T07:40:00,ths,4.48
2022-06-26T07:41:00,ths,4.53
2022-06-26T07:42:00,ths,4.57
2022-06-26T07:43:00,ths,4.46
2022-06-26T07:44:00,ths,4.45
2022-06-26T07:45:00,ths,4.72
2022-06-26T07:46:00,ths,4.56
2022-06-26T07:47:00,ths,4.66
2022-06-26T07:48:00,ths,4.81
2022-06-26T07:49:00,ths,4.80
2022-06-26T07:50:00,ths,4.77
2022-06-26T07:51:00,ths,4.60
2022-06-26T07:52:00,ths,4.37
2022-06-26T07:53:00,ths,7.80
2022-06-26T07:54:00,ths,7.95
2022-06-26T07:55:00,ths,12.20
2022-06-26T07:56:00,ths,12.20
2022-06-26T07:57:00,ths,12.22
2022-06-26T07:58:00,ths,9.60
2022-06-26T07:59:00,ths,8.68
2022-06-26T08:00:00,ths,8.62
2022-06-26T08:01:00,ths,8.59
2022-06-26T08:02:00,ths,8.57
2022-06-26T08:03:00,ths,8.39
2022-06-26T08:04:00,ths,12.85
2022-06-26T08:05:00,ths,12.87
2022-06-26T08:06:00,ths,12.97
2022-06-26T08:07:00,ths,12.96
2022-06-26T08:08:00,ths,15.10
2022-06-26T08:09:00,ths,15.85
2022-06-26T08:10:00,ths,15.88
2022-06-26T08:11:00,ths,14.10
2022-06-26T08:12:00,ths,14.46
2022-06-26T08:13:00,ths,15.07
2022-06-26T08:14:00,ths,15.08
2022-06-26T08:15:00,ths,14.97
2022-06-26T08:16:00,ths,14.87
2022-06-26T08:17:00,ths,13.27
2022-06-26T08:18:00,ths,13.24
2022-06-26T08:19:00,ths,13.23
2022-06-26T08:20:00,ths,14.79
2022-06-26T08:21:00,ths,14.75
2022-06-26T08:22:00,ths,13.14
2022-06-26T08:23:00,ths,13.13
2022-06-26T08:24:00,ths,15.27
2022-06-26T08:25:00,ths,17.80
2022-06-26T08:26:00,ths,13.76
2022-06-26T08:27:00,ths,13.70
2022-06-26T08:28:00,ths,17.82
2022-06-26T08:29:00,ths,17.87
2022-06-26T08:30:00,ths,18.34
2022-06-26T08:31:00,ths,11.30
2022-06-26T08:32:00,ths,10.87
2022-06-26T08:33:00,ths,10.93
2022-06-26T08:34:00,ths,14.80
2022-06-26T08:35:00,ths,15.88
2022-06-26T08:36:00,ths,16.06
2022-06-26T08:37:00,ths,12.08
2022-06-26T08:38:00,ths,12.75
2022-06-26T08:39:00,ths,16.61
2022-06-26T08:40:00,ths,17.27
2022-06-26T08:41:00,ths,16.48
2022-06-26T08:42:00,ths,13.29
2022-06-26T08:43:00,ths,17.85
2022-06-26T08:44:00,ths,9.25
2022-06-26T08:45:00,ths,12.81
2022-06-26T08:46:00,ths,17.42
2022-06-26T08:47:00,ths,13.30
2022-06-26T08:48:00,ths,13.40
2022-06-26T08:49:00,ths,14.40
2022-06-26T08:50:00,ths,9.27
2022-06-26T08:51:00,ths,7.41
2022-06-26T08:52:00,ths,7.59
2022-06-26T08:53:00,ths,9.67
2022-06-26T08:54:00,ths,13.76
2022-06-26T08:55:00,ths,14.15
2022-06-26T08:56:00,ths,18.07
2022-06-26T08:57:00,ths,15.70
2022-06-26T08:58:00,ths,11.92
2022-06-26T08:59:00,ths,15.36
2022-06-26T09:00:00,ths,12.62
2022-06-26T09:01:00,ths,13.47
2022-06-26T09:02:00,ths,9.26
2022-06-26T09:03:00,ths,9.87
2022-06-26T09:04:00,ths,4.60
2022-06-26T09:05:00,ths,5.02
2022-06-26T09:06:00,ths,5.05
2022-06-26T09:07:00,ths,4.59
2022-06-26T09:08:00,ths,4.97
2022-06-26T09:09:00,ths,4.53
2022-06-26T09:10:00,ths,4.95
2022-06-26T09:11:00,ths,4.94
2022-06-26T09:12:00,ths,4.66
2022-06-26T09:13:00,ths,4.53
2022-06-26T09:14:00,ths,10.46
2022-06-26T09:15:00,ths,10.62
2022-06-26T09:16:00,ths,10.68
2022-06-26T09:17:00,ths,13.70
2022-06-26T09:18:00,ths,13.59
2022-06-26T09:19:00,ths,13.74
2022-06-26T09:20:00,ths,18.11
2022-06-26T09:21:00,ths,19.11
2022-06-26T09:22:00,ths,14.23
2022-06-26T09:23:00,ths,12.85
2022-06-26T09:24:00,ths,12.82
2022-06-26T09:25:00,ths,12.80
2022-06-26T09:26:00,ths,13.03
2022-06-26T09:27:00,ths,13.00
2022-06-26T09:28:00,ths,9.16
2022-06-26T09:29:00,ths,9.14
2022-06-26T09:30:00,ths,9.10
2022-06-26T09:31:00,ths,9.09
2022-06-26T09:32:00,ths,9.10
2022-06-26T09:33:00,ths,6.15
2022-06-26T09:34:00,ths,5.02
2022-06-26T09:35:00,ths,9.47
2022-06-26T09:36:00,ths,10.19
2022-06-26T09:37:00,ths,9.10
2022-06-26T09:38:00,ths,6.40
2022-06-26T09:39:00,ths,5.81
2022-06-26T09:40:00,ths,6.42
2022-06-26T09:41:00,ths,10.23
2022-06-26T09:42:00,ths,12.64
2022-06-26T09:43:00,ths,8.84
2022-06-26T09:44:00,ths,12.01
2022-06-26T09:45:00,ths,11.78
2022-06-26T09:46:00,ths,15.73
2022-06-26T09:47:00,ths,16.82
2022-06-26T09:48:00,ths,12.12
2022-06-26T09:49:00,ths,12.77
2022-06-26T09:50:00,ths,9.87
2022-06-26T09:51:00,ths,6.03
2022-06-26T09:52:00,ths,10.05
2022-06-26T09:53:00,ths,9.95
2022-06-26T09:54:00,ths,7.67
2022-06-26T09:55:00,ths,7.85
2022-06-26T09:56:00,ths,7.73
2022-06-26T09:57:00,ths,11.94
2022-06-26T09:58:00,ths,15.20
2022-06-26T09:59:00,ths,8.92
2022-06-26T10:00:00,ths,8.25
2022-06-26T10:01:00,ths,11.31
2022-06-26T10:02:00,ths,11.16
2022-06-26T10:03:00,ths,15.30
2022-06-26T10:04:00,ths,11.86
2022-06-26T10:05:00,ths,10.56
2022-06-26T10:06:00,ths,10.71
2022-06-26T10:07:00,ths,10.76
2022-06-26T10:08:00,ths,10.50
2022-06-26T10:09:00,ths,10.56
2022-06-26T10:10:00,ths,10.52
2022-06-26T10:11:00,ths,18.67
2022-06-26T10:12:00,ths,18.82
2022-06-26T10:13:00,ths,18.86
2022-06-26T10:14:00,ths,22.21
2022-06-26T10:15:00,ths,22.33
2022-06-26T10:16:00,ths,19.24
2022-06-26T10:17:00,ths,16.45
2022-06-26T10:18:00,ths,15.52
2022-06-26T10:19:00,ths,15.48
2022-06-26T10:20:00,ths,17.16
2022-06-26T10:21:00,ths,15.48
2022-06-26T10:22:00,ths,15.64
2022-06-26T10:23:00,ths,15.58
2022-06-26T10:24:00,ths,15.51
2022-06-26T10:25:00,ths,18.49
2022-06-26T10:26:00,ths,21.64
2022-06-26T10:27:00,ths,22.55
2022-06-26T10:28:00,ths,18.75
2022-06-26T10:29:00,ths,17.96
2022-06-26T10:30:00,ths,14.84
2022-06-26T10:31:00,ths,14.92
2022-06-26T10:32:00,ths,15.07
2022-06-26T10:33:00,ths,19.00
2022-06-26T10:34:00,ths,19.10
2022-06-26T10:35:00,ths,19.05
2022-06-26T10:36:00,ths,22.58
2022-06-26T10:37:00,ths,22.55
2022-06-26T10:38:00,ths,22.84
2022-06-26T10:39:00,ths,22.67
2022-06-26T10:40:00,ths,18.51
2022-06-26T10:41:00,ths,15.47
2022-06-26T10:42:00,ths,15.47
2022-06-26T10:43:00,ths,15.59
2022-06-26T10:44:00,ths,15.60
2022-06-26T10:45:00,ths,15.52
2022-06-26T10:46:00,ths,15.54
2022-06-26T10:47:00,ths,15.57
2022-06-26T10:48:00,ths,12.72
2022-06-26T10:49:00,ths,11.96
2022-06-26T10:50:00,ths,15.27
2022-06-26T10:51:00,ths,18.10
2022-06-26T10:52:00,ths,22.16
2022-06-26T10:53:00,ths,22.13
2022-06-26T10:54:00,ths,18.25
2022-06-26T10:55:00,ths,19.44
2022-06-26T10:56:00,ths,19.32
2022-06-26T10:57:00,ths,18.71
2022-06-26T10:58:00,ths,22.80
2022-06-26T10:59:00,ths,22.64
2022-06-26T11:00:00,ths,16.29
2022-06-26T11:01:00,ths,11.48
2022-06-26T11:02:00,ths,11.41
2022-06-26T11:03:00,ths,11.46
2022-06-26T11:04:00,ths,15.30
2022-06-26T11:05:00,ths,15.34
2022-06-26T11:06:00,ths,15.30
2022-06-26T11:07:00,ths,15.38
2022-06-26T11:08:00,ths,8.46
2022-06-26T11:09:00,ths,10.90
2022-06-26T11:10:00,ths,10.81
2022-06-26T11:11:00,ths,10.55
2022-06-26T11:12:00,ths,10.54
2022-06-26T11:13:00,ths,10.52
2022-06-26T11:14:00,ths,14.05
2022-06-26T11:15:00,ths,17.08
2022-06-26T11:16:00,ths,21.43
2022-06-26T11:17:00,ths,21.59
2022-06-26T11:18:00,ths,18.54
2022-06-26T11:19:00,ths,18.37
2022-06-26T11:20:00,ths,15.24
2022-06-26T11:21:00,ths,15.10
2022-06-26T11:22:00,ths,15.48
2022-06-26T11:23:00,ths,12.26
2022-06-26T11:24:00,ths,11.09
2022-06-26T11:25:00,ths,11.04
2022-06-26T11:26:00,ths,14.11
2022-06-26T11:27:00,ths,14.01
2022-06-26T11:28:00,ths,11.26
2022-06-26T11:29:00,ths,10.56
2022-06-26T11:30:00,ths,10.50
2022-06-26T11:31:00,ths,10.49
2022-06-26T11:32:00,ths,10.46
2022-06-26T11:33:00,ths,10.46
2022-06-26T11:34:00,ths,14.08
2022-06-26T11:35:00,ths,14.04
2022-06-26T11:36:00,ths,17.23
2022-06-26T11:37:00,ths,17.24
2022-06-26T11:38:00,ths,17.32
2022-06-26T11:39:00,ths,17.29
2022-06-26T11:40:00,ths,14.81
2022-06-26T11:41:00,ths,14.11
2022-06-26T11:42:00,ths,14.27
2022-06-26T11:43:00,ths,14.25
2022-06-26T11:44:00,ths,11.08
2022-06-26T11:45:00,ths,11.16
2022-06-26T11:46:00,ths,8.18
2022-06-26T11:47:00,ths,8.04
2022-06-26T11:48:00,ths,8.02
2022-06-26T11:49:00,ths,8.09
2022-06-26T11:50:00,ths,5.07
2022-06-26T11:51:00,ths,8.53
2022-06-26T11:52:00,ths,8.54
2022-06-26T11:53:00,ths,8.52
2022-06-26T11:54:00,ths,15.17
2022-06-26T11:55:00,ths,14.97
2022-06-26T11:56:00,ths,21.96
2022-06-26T11:57:00,ths,17.54
2022-06-26T11:58:00,ths,17.62
2022-06-26T11:59:00,ths,17.58
2022-06-26T12:00:00,ths,17.69
2022-06-26T12:01:00,ths,17.53
2022-06-26T12:02:00,ths,15.02
2022-06-26T12:03:00,ths,14.39
2022-06-26T12:04:00,ths,14.30
2022-06-26T12:05:00,ths,14.36
2022-06-26T12:06:00,ths,14.45
2022-06-26T12:07:00,ths,14.50
2022-06-26T12:08:00,ths,14.47
2022-06-26T12:09:00,ths,11.83
2022-06-26T12:10:00,ths,8.76
2022-06-26T12:11:00,ths,4.17
2022-06-26T12:12:00,ths,4.17
2022-06-26T12:13:00,ths,4.15
2022-06-26T12:14:00,ths,4.17
2022-06-26T12:15:00,ths,4.05
2022-06-26T12:16:00,ths,7.84
2022-06-26T12:17:00,ths,7.87
2022-06-26T12:18:00,ths,10.98
2022-06-26T12:19:00,ths,17.44
2022-06-26T12:20:00,ths,17.58
2022-06-26T12:21:00,ths,17.71
2022-06-26T12:22:00,ths,17.63
2022-06-26T12:23:00,ths,17.66
2022-06-26T12:24:00,ths,19.22
2022-06-26T12:25:00,ths,18.54
2022-06-26T12:26:00,ths,18.49
2022-06-26T12:27:00,ths,18.48
2022-06-26T12:28:00,ths,18.26
2022-06-26T12:29:00,ths,18.43
2022-06-26T12:30:00,ths,15.36
2022-06-26T12:31:00,ths,14.39
2022-06-26T12:32:00,ths,11.21
2022-06-26T12:33:00,ths,8.10
2022-06-26T12:34:00,ths,7.16
2022-06-26T12:35:00,ths,7.18
2022-06-26T12:36:00,ths,10.64
2022-06-26T12:37:00,ths,10.37
2022-06-26T12:38:00,ths,10.42
2022-06-26T12:39:00,ths,14.19
2022-06-26T12:40:00,ths,14.30
2022-06-26T12:41:00,ths,15.40
2022-06-26T12:42:00,ths,14.33
2022-06-26T12:43:00,ths,14.25
2022-06-26T12:44:00,ths,14.23
2022-06-26T12:45:00,ths,14.42
2022-06-26T12:46:00,ths,14.37
2022-06-26T12:47:00,ths,14.35
2022-06-26T12:48:00,ths,14.36
2022-06-26T12:49:00,ths,14.50
2022-06-26T12:50:00,ths,14.32
2022-06-26T12:51:00,ths,14.44
2022-06-26T12:52:00,ths,17.98
2022-06-26T12:53:00,ths,15.25
2022-06-26T12:54:00,ths,14.58
2022-06-26T12:55:00,ths,14.44
2022-06-26T12:56:00,ths,11.49
2022-06-26T12:57:00,ths,10.69
2022-06-26T12:58:00,ths,7.95
2022-06-26T12:59:00,ths,7.61
2022-06-26T13:00:00,ths,7.42
2022-06-26T13:01:00,ths,7.43
2022-06-26T13:02:00,ths,11.17
2022-06-26T13:03:00,ths,11.33
2022-06-26T13:04:00,ths,14.82
2022-06-26T13:05:00,ths,14.74
2022-06-26T13:06:00,ths,14.76
2022-06-26T13:07:00,ths,15.65
2022-06-26T13:08:00,ths,19.10
2022-06-26T13:09:00,ths,22.33
2022-06-26T13:10:00,ths,22.37
2022-06-26T13:11:00,ths,22.23
2022-06-26T13:12:00,ths,22.19
2022-06-26T13:13:00,ths,22.33
2022-06-26T13:14:00,ths,22.32
2022-06-26T13:15:00,ths,18.11
2022-06-26T13:16:00,ths,12.63
2022-06-26T13:17:00,ths,8.14
2022-06-26T13:18:00,ths,7.59
2022-06-26T13:19:00,ths,7.40
2022-06-26T13:20:00,ths,7.40
2022-06-26T13:21:00,ths,7.41
2022-06-26T13:22:00,ths,7.41
2022-06-26T13:23:00,ths,8.56
2022-06-26T13:24:00,ths,11.22
2022-06-26T13:25:00,ths,14.78
2022-06-26T13:26:00,ths,14.72
2022-06-26T13:27:00,ths,17.97
2022-06-26T13:28:00,ths,18.09
2022-06-26T13:29:00,ths,18.10
2022-06-26T13:30:00,ths,17.94
2022-06-26T13:31:00,ths,15.41
2022-06-26T13:32:00,ths,14.55
2022-06-26T13:33:00,ths,14.86
2022-06-26T13:34:00,ths,14.69
2022-06-26T13:35:00,ths,14.44
2022-06-26T13:36:00,ths,14.42